This demonstration page uses our WeatherBlox Daily Observations layout. Learn more.

Left ArrowRight Arrow

Hourly Observations for November 29, 2021

Temp ( °F °C ) Dew Point ( °F °C ) Humidity (%) Winds ( mph kmh ) Pressure ( in mb ) Visibility ( mi km ) Precip ( " mm )
12:15 am 00:15 Clear 47 8.3 30 -1 52 52 W 6 9 30.02 1017 10 16 N/A
12:35 am 00:35 Clear 48 8.7 30 -1 51 51 W 7 11 30.01 1016 10 16 N/A
12:55 am 00:55 Clear 48 8.9 30 -1.1 50 50 W 10 17 29.99 1016 10 16 N/A
1:15 am 01:15 Clear 48 8.7 30 -1.3 50 50 W 8 13 29.99 1016 10 16 N/A
1:35 am 01:35 Clear 48 8.9 30 -1.2 49 49 W 9 15 29.99 1016 10 16 N/A
1:55 am 01:55 Clear 48 8.9 29 -1.5 48 48 WSW 9 15 29.98 1015 10 16 N/A
2:15 am 02:15 Clear 46 7.7 29 -1.6 52 52 WSW 9 15 29.99 1016 10 16 N/A
2:35 am 02:35 Clear 45 7 29 -1.7 54 54 W 9 15 30.00 1016 10 16 N/A
2:55 am 02:55 Clear 44 6.8 29 -1.6 55 55 W 10 17 30.00 1016 10 16 N/A
3:15 am 03:15 Clear 43 6 29 -1.7 58 58 W 12 19 30.01 1016 10 16 N/A
3:35 am 03:35 Clear 43 6 29 -1.5 59 59 W 10 17 30.00 1016 10 16 N/A
3:55 am 03:55 Clear 42 5.8 30 -1.3 61 61 W 10 17 30.00 1016 10 16 N/A
4:15 am 04:15 Clear 42 5.7 29 -1.4 61 61 W 9 15 30.00 1016 10 16 N/A
4:35 am 04:35 Clear 41 4.9 29 -1.5 64 64 W 9 15 30.01 1016 10 16 N/A
4:55 am 04:55 Clear 41 4.9 30 -1.3 65 65 W 9 15 30.01 1016 10 16 N/A
5:15 am 05:15 Clear 39 4 29 -1.6 67 67 WNW 6 9 30.02 1016 10 16 N/A
5:35 am 05:35 Clear 38 3.3 29 -1.7 70 70 W 7 11 30.02 1017 10 16 N/A
5:55 am 05:55 Clear 38 3.4 29 -1.7 70 70 W 8 13 30.02 1017 10 16 N/A
6:15 am 06:15 Clear 38 3.3 29 -1.5 71 71 W 7 11 30.02 1017 10 16 N/A
6:35 am 06:35 Clear 38 3.2 30 -1.3 73 73 W 7 11 30.03 1017 10 16 N/A
6:55 am 06:55 Clear 38 3.3 29 -1.5 71 71 W 7 11 30.03 1017 10 16 N/A
7:15 am 07:15 Clear 38 3.4 29 -1.4 71 71 WNW 5 7 30.03 1017 10 16 N/A
7:35 am 07:35 Clear 36 2.1 28 -2.1 74 74 WNW 6 9 30.04 1017 10 16 N/A
7:55 am 07:55 Sunny 38 3.2 30 -1.2 73 73 WNW 7 11 30.04 1017 10 16 N/A
8:15 am 08:15 Sunny 39 4 30 -0.9 71 71 WNW 8 13 30.04 1017 10 16 N/A
8:35 am 08:35 Sunny 40 4.2 31 -0.6 71 71 WNW 6 9 30.04 1017 10 16 N/A
8:55 am 08:55 Sunny 43 6.1 32 undefined 65 65 W 10 17 30.03 1017 10 16 N/A
9:15 am 09:15 Sunny 46 7.6 32 undefined 59 59 W 8 13 30.01 1016 10 16 N/A
9:35 am 09:35 Sunny 49 9.4 34 0.9 56 56 WNW 8 13 30.00 1016 10 16 N/A
9:55 am 09:55 Sunny 52 11.3 35 1.5 51 51 WNW 7 11 29.98 1015 10 16 N/A
10:15 am 10:15 Sunny 55 12.7 35 1.6 47 47 WNW 6 9 29.98 1015 10 16 N/A
10:35 am 10:35 Sunny 56 13.6 33 0.5 41 41 NW 15 24 29.97 1015 10 16 N/A
10:55 am 10:55 Sunny 56 13.5 33 0.6 42 42 NW 10 17 29.98 1015 10 16 N/A
11:15 am 11:15 Sunny 56 13.5 33 0.6 42 42 NW 8 13 29.97 1015 10 16 N/A
11:35 am 11:35 Sunny 58 14.2 33 0.7 40 40 WNW 9 15 29.96 1014 10 16 N/A
11:55 am 11:55 Sunny 58 14.6 33 0.6 39 39 WNW 7 11 29.94 1014 10 16 N/A
12:15 pm 12:15 Sunny 59 15 33 0.5 37 37 WNW 8 13 29.94 1014 10 16 N/A
12:35 pm 12:35 Sunny 60 15.6 33 0.8 37 37 WNW 7 11 29.92 1013 10 16 N/A
12:55 pm 12:55 Sunny 61 16.3 34 1 36 36 WNW 7 11 29.92 1013 10 16 N/A
1:15 pm 13:15 Sunny 63 17.1 34 1.3 35 35 WNW 6 9 29.91 1013 10 16 N/A
1:35 pm 13:35 Sunny 65 18.4 35 1.5 32 32 WNW 6 9 29.89 1012 10 16 N/A
1:55 pm 13:55 Sunny 66 18.9 34 1.3 31 31 WNW 6 9 29.89 1012 10 16 N/A
2:15 pm 14:15 Sunny 67 19.7 34 1.2 29 29 WNW 6 9 29.88 1012 10 16 N/A
2:35 pm 14:35 Sunny 68 20.2 34 1.2 28 28 WNW 7 11 29.88 1012 10 16 N/A
2:55 pm 14:55 Sunny 69 20.5 34 1.3 28 28 W 5 7 29.86 1011 10 16 N/A
3:15 pm 15:15 Sunny 69 20.8 34 1.3 27 27 WNW 3 6 29.87 1012 10 16 N/A
3:35 pm 15:35 Sunny 70 21.1 35 1.4 27 27 WNW 3 6 29.87 1011 10 16 N/A
3:55 pm 15:55 Sunny 70 21.3 35 1.4 27 27 NNW 6 9 29.87 1011 10 16 N/A
4:15 pm 16:15 Sunny 69 20.8 33 0.5 26 26 N 5 7 29.88 1012 7 11 N/A
4:35 pm 16:35 Mostly Cloudy with Haze 66 19 32 undefined 28 28 N 3 6 29.90 1012 2 2 N/A
4:55 pm 16:55 Sunny 65 18.6 32 -0.1 28 28 N N/A 29.91 1013 7 11 N/A
5:15 pm 17:15 Clear 60 15.6 31 -0.5 34 34 N N/A 29.93 1014 7 11 N/A
5:35 pm 17:35 Clear 58 14.4 31 -0.5 36 36 N N/A 29.95 1014 7 11 N/A
5:55 pm 17:55 Clear 57 14.1 31 -0.5 37 37 N N/A 29.96 1014 10 16 N/A
6:15 pm 18:15 Clear 54 12.2 31 -0.5 42 42 N N/A 29.98 1015 10 16 N/A
6:35 pm 18:35 Clear 46 7.8 29 -1.6 52 52 N N/A 30.02 1017 7 11 N/A
6:55 pm 18:55 Clear 47 8.5 30 -1 52 52 N N/A 30.03 1017 10 16 N/A
7:15 pm 19:15 Clear 48 8.8 30 -0.9 51 51 N N/A 30.03 1017 10 16 N/A
7:35 pm 19:35 Clear 43 5.9 29 -1.7 59 59 NNW 3 6 30.06 1018 10 16 N/A
7:55 pm 19:55 Clear 43 6.3 30 -1.2 59 59 N 3 6 30.06 1018 10 16 N/A
8:15 pm 20:15 Clear 43 6 29 -1.7 58 58 N N/A 30.07 1018 10 16 N/A
8:35 pm 20:35 Clear 43 6.2 29 -1.4 59 59 NNW 3 6 30.07 1018 10 16 N/A
8:55 pm 20:55 Clear 41 5.2 28 -2.1 60 60 N N/A 30.08 1018 10 16 N/A
9:15 pm 21:15 Clear 40 4.7 28 -2 62 62 N N/A 30.07 1018 10 16 N/A
9:35 pm 21:35 Clear 37 2.7 27 -2.9 67 67 NNE 7 11 30.09 1019 10 16 N/A
9:55 pm 21:55 Clear 45 7 29 -1.4 55 55 N N/A 30.06 1018 10 16 N/A
10:15 pm 22:15 Clear 41 4.9 28 -2 61 61 N N/A 30.09 1019 10 16 N/A
10:35 pm 22:35 Clear 40 4.6 28 -2 63 63 N N/A 30.10 1019 10 16 N/A
10:55 pm 22:55 Clear 36 2.1 26 -3.4 67 67 NNW 3 6 30.12 1020 10 16 N/A
11:15 pm 23:15 Clear 35 1.4 27 -2.7 74 74 NNW 3 6 30.12 1020 10 16 N/A
11:35 pm 23:35 Clear 38 3.5 28 -2 68 68 N N/A 30.11 1020 10 16 N/A
11:55 pm 23:55 Clear 37 2.7 28 -2.4 69 69 N 3 6 30.13 1020 10 16 N/A

Powered by AerisWeather